Location: Apollinopolis Magna
(24.9792°N, 32.8772°E)
Time: 11:31:41
(UTC+00:00)

GPS 2-12 Rocket1 - Pass Details

Date: 02 March 2021
Orbit: 586 x 651 km, 20.0° (Epoch: 16 April)

Event Time Altitude Azimuth Distance (km) Brightness Sun altitude
Rises 17:19:14 0° 237° (WSW) 2,933 7.4 -20.7°
Reaches altitude 10° 17:21:52 10° 226° (SW) 2,030 6.3 -21.3°
Maximum altitude 17:25:57 28° 167° (SSE) 1,203 4.3 -22.2°
Enters shadow 17:26:04 28° 164° (SSE) 1,204 4.3 -22.3°
